This is the latest recevied weather packets stored in our database for station/object N4NVD-13. If no packets are shown the sender has not sent any weather packets the latest 10 day(s).
| Time | Temp. | Humidity | Pressure | Rain* | Wind** | Luminosity | Snow |
|---|---|---|---|---|---|---|---|
| 1778071605 | 23.89° C | 99% | 1009 hPa | 0 mm | - | 28 W/m² | - |
| 1778071303 | 23.89° C | 99% | 1008.9 hPa | 0 mm | - | 28 W/m² | - |
| 1778071000 | 23.89° C | 99% | 1008.7 hPa | 0 mm | - | 37 W/m² | - |
| 1778070699 | 23.89° C | 99% | 1008.8 hPa | 0 mm | - | 27 W/m² | - |
| 1778070395 | 23.89° C | 99% | 1008.8 hPa | 0 mm | - | 18 W/m² | - |
| 1778070093 | 23.89° C | 99% | 1008.8 hPa | 0 mm | - | 13 W/m² | - |
| 1778069790 | 23.89° C | 99% | 1008.6 hPa | 0 mm | - | 10 W/m² | - |
| 1778069486 | 23.89° C | 99% | 1008.6 hPa | 0 mm | - | 11 W/m² | - |
| 1778069185 | 23.89° C | 99% | 1008.9 hPa | 0 mm | - | 7 W/m² | - |
| 1778068881 | 23.89° C | 98% | 1008.6 hPa | 0 mm | - | 2 W/m² | - |
| 1778068580 | 23.89° C | 98% | 1008.6 hPa | 0 mm | - | 2 W/m² | - |
| 1778068278 | 23.89° C | 98% | 1008.7 hPa | 0 mm | - | 0 W/m² | - |
| 1778067975 | 23.89° C | 98% | 1008.7 hPa | 0 mm | - | 0 W/m² | - |
| 1778067673 | 23.89° C | 98% | 1008.7 hPa | 0 mm | - | 0 W/m² | - |
| 1778067371 | 23.89° C | 98% | 1008.4 hPa | 0 mm | - | 0 W/m² | - |
| 1778067068 | 23.89° C | 98% | 1008.5 hPa | 0 mm | - | 0 W/m² | - |
| 1778066764 | 23.89° C | 98% | 1008.3 hPa | 0 mm | - | 0 W/m² | - |
| 1778066462 | 23.89° C | 98% | 1008.3 hPa | 0 mm | - | 0 W/m² | - |
| 1778066159 | 23.89° C | 97% | 1008.3 hPa | 0 mm | - | 0 W/m² | - |
| 1778065856 | 23.89° C | 97% | 1008.1 hPa | 0 mm | - | 0 W/m² | - |
| 1778065554 | 23.89° C | 97% | 1008.4 hPa | 0 mm | - | 0 W/m² | - |
| 1778065251 | 23.89° C | 97% | 1008.2 hPa | 0 mm | - | 0 W/m² | - |
| 1778064947 | 23.89° C | 97% | 1008 hPa | 0 mm | - | 0 W/m² | - |
| 1778064645 | 23.89° C | 97% | 1008.1 hPa | 0 mm | - | 0 W/m² | - |
| 1778064343 | 23.89° C | 97% | 1008 hPa | 0 mm | - | 0 W/m² | - |
* Rain latest hour (hover to see other rain measurements)
** Current wind speed in m/s (hover to see current wind gust speed)